Image and video hosting by TinyPic

Jackpot

Texas Poker Multi Jackpot System

Kini Telah hadir Jackpot SUPER ROYAL FLUSH

Kini Telah hadir Jackpot 2000 (khusus table VIP keatas).

Ikutilah global jackpot yang tersedia di system kami, dengan system jackpot terbaru dan pertama di indonesia, anda dapat membeli jackpot dengan harga 100 rupiah saja dan menangkan hadiahnya hingga puluhan juta rupiah.

Jackpot bukanlah suatu keharusan untuk dibeli, namun kami memberikan suatu fitur tambahan untuk member tercinta dari www.b88poker.cc.

Terdapat tiga pilihan harga jackpot yang bisa anda beli yaitu :100,500,1000 dan 2000(khusus table VIP Keatas) rupiah.

Hadiah dari Multi jackpot system www.b88poker.cc

  1. full house x 10 harga jackpot yang anda beli.
      (contoh:anda membeli 1000 maka:1000 X10 = 10.000)
  2. four of kind x 250 harga jackpot yang anda beli
      (contoh:anda membeli 1000 maka:1000 X250 = 250.000)
  3. Straight flush x 1200
      (contoh:anda membeli 1000 maka:1000 X1200 = 1.200.000)
  4. Royal flush x 10000 harga jackpot yang anda beli
      (contoh:anda membeli 1000 maka:1000 X10000 = 10.000.000)
  5. SUPER ROYAL FLUSH x 30000 harga jackpot yang anda beli
      (contoh:anda membeli 1000 maka:1000 X30000 = 30.000.000)

Kondisi kartu

  1. full house adalah kondisi kartu dimana kartu anda dan kartu tengah dengan total 7 kartu bisa mendapatkan nilai 5 kartu dengan kombinasi 1 tris(three of kind) dan 1 pair, contoh 3 kartu 10 dan 2 kartu 5
  2. Four of kind adalah kondisi kartu dimana kartu anda dan kartu tengah dengan total 7 kartu bisa mendapatkan nilai 5 kartu dengan kombinasi 4 kartu yang sama jumlah dan 1 kartu apapun juga contoh anda mendapatkan 4 buah kartu angka 3 dan 1 kartu apapun.
  3. Staright flush adalah kondisi kartu dimana kartu anda dan kartu tengah dengan total 7 kartu bisa mendapatkan nilai 5 kartu dengan kombinasi seri / staright dengan kembang yang sama contoh : urutan kartu dari angka 5, 6, 7, 8 , 9 10 dengan kembang yg sama misalnya as hati
  4. Royal flush adalah kondisi kartu dimana kartu anda dan kartu tengah dengan total 7 kartu bisa mendapatkan nilai 5 kartu dengan kombinasi seri / staright dengan kembang yang sama tetapi kartu tersebut haruslah dimulai dari 10. contoh 10, Queen, Jack, King dan aces dengan kembang yang sama
  5. Super Royal flush adalah kondisi kartu dimana Kedua kartu anda digabung dengan 3 kartu pertama meja haruslah royal flush. contoh kartu anda 10,Queen kembang sama dan 3 kartu pertama meja adalah Jack, King dan aces dengan kembang yang sama

Demikian adalah penjelasan dari Multi Jackpot www.b88poker.cc terima kasih dan selamat bermain salam hoki dari kami

Texas Poker Jackpot Winner

TOP SUPER ROYAL FLUSH
No.TanggalNamaPriceWin
121/09 14:11ROYALJOZZSuper Royal flush60,000,000
221/09 13:43BA_ATIYOSuper Royal flush6,000,000
321/09 12:23B8EKCBJIYMSuper Royal flush3,000,000
421/09 08:32TUPO25Super Royal flush3,000,000
521/09 07:21SLOME898Super Royal flush30,000,000
TOP ROYAL FLUSH
No.TanggalNamaPriceWin
121/09 23:33FANI29Royal flush5,000,000
221/09 23:26JASEF89Royal flush10,000,000
321/09 23:25OSG999071Royal flush10,000,000
421/09 23:21REEY90Royal flush5,000,000
521/09 23:20RUDYBABELRoyal flush20,000,000
TOP STRAIGHT FLUSH
No.TanggalNamaPriceWin
121/09 23:39LUTUTUNG9Straight Flush240,000
221/09 23:38HANAAStraight Flush600,000
321/09 23:37TUKTUK897Straight Flush120,000
421/09 23:36OM_JOYOStraight Flush1,200,000
521/09 23:34GREENBAM88Straight Flush2,400,000
LATEST JACKPOT
No.TanggalNamaPriceWin
121/09 23:39MINAAJAFull House2,000
221/09 23:39AB3AAC35Full House2,000
321/09 23:39MF5POCE7LPFull House20,000
421/09 23:39GEBZ6YZO3FFull House20,000
521/09 23:39KANLFull House2,000
621/09 23:39KUCRUT08Four Of A Kind125,000
721/09 23:39NINJA27Full House500
821/09 23:39MAHAGOODFull House10,000
921/09 23:39MYINTFull House10,000
1021/09 23:39N0NG0L88Full House1,000
1121/09 23:39PAKET9898Full House2,000
1221/09 23:39IONZCGA8AZFull House5,000
1321/09 23:39WHEN54Full House5,000
1421/09 23:39KENTHUZ89Full House2,000
1521/09 23:39AFAD84AEFour Of A Kind50,000
1621/09 23:39AZ13BFull House10,000
1721/09 23:39M3CNOR1U5HFull House5,000
1821/09 23:39TILINGTIT8Full House5,000
1921/09 23:39SABARCOY1Full House5,000
2021/09 23:39TAPEK33Full House5,000
2121/09 23:39KINGZFull House1,000
2221/09 23:39CNTL10Full House2,000
2321/09 23:39BARONGK07Full House2,000
2421/09 23:39AZZAHRA77Full House10,000
2521/09 23:39AHMAD35Full House10,000
2621/09 23:39OTHOCKFull House10,000
2721/09 23:39NOISE79Full House1,000
2821/09 23:39HAKSU55Full House2,000
2921/09 23:39CARIDIFull House500
3021/09 23:39PILISFull House500
3121/09 23:39EDDY9Full House500
3221/09 23:39C4XR4Full House5,000
3321/09 23:39HIMALA88Full House2,000
3421/09 23:39ONONARAKFull House2,000
3521/09 23:39NZAHRA20Full House2,000
3621/09 23:39MRH4PPYFull House5,000
3721/09 23:39ODYSEYYFull House2,000
3821/09 23:39BAMS2018Full House2,000
3921/09 23:39KUE201Full House5,000
4021/09 23:39MDRDOREMONFull House2,000
4121/09 23:39RUDYR12345Full House2,000
4221/09 23:39PL_HEPPAPFull House10,000
4321/09 23:39SUYUM89Full House10,000
4421/09 23:39PELO405Full House1,000
4521/09 23:39JONYEXMON1Full House500
4621/09 23:39EPAK666Full House1,000
4721/09 23:39CONGO61Full House10,000
4821/09 23:39DP340Full House10,000
4921/09 23:39KUY1717Full House10,000
5021/09 23:39EPO88Full House1,000

Domino Multi Jackpot System

Ikutilah global jackpot yang tersedia di system kami, dengan system jackpot terbaru dan pertama di indonesia, anda dapat membeli jackpot dengan harga 100 rupiah saja dan menangkan hadiahnya hingga puluhan juta rupiah.

Jackpot bukanlah suatu keharusan untuk dibeli, namun kami memberikan suatu fitur tambahan untuk member tercinta dari www.b88poker.cc.

Terdapat tiga pilihan harga jackpot yang bisa anda beli yaitu :100,500 dan 1000 rupiah.

Hadiah dari Multi jackpot system www.b88poker.cc

  1. Murni Kecil x 50 harga jackpot yang anda beli.
      (contoh:anda membeli 1000 maka:1000 X 50 = 50.000)
  2. Murni Besar x 50 harga jackpot yang anda beli
      (contoh:anda membeli 1000 maka:1000 X 50 = 50.000)
  3. BALAK x 100 harga jackpot yang anda beli
      (contoh:anda membeli 1000 maka:1000 X 100 = 100.000)
  4. ENAM DEWA x 6666 harga jackpot yang anda beli
      (contoh:anda membeli 1000 maka:1000 X 6666 = 6.666.000)

Demikian adalah penjelasan dari Multi Jackpot www.b88poker.cc terima kasih dan selamat bermain salam hoki dari kami

Domino Jackpot Winner

TOP ENAM DEWA
No.TanggalNamaPriceWin
121/09 23:35TEMPE444murni enam666,600
221/09 21:47MORBAG029murni enam3,333,000
321/09 21:27STW79murni enam3,333,000
421/09 21:20FIRMIHmurni enam666,600
521/09 21:02ADUL4444murni enam6,666,000
TOP BALAK
No.TanggalNamaPriceWin
121/09 23:35CALUNG11balak100,000
221/09 23:35JAMIL_6666balak50,000
321/09 23:33DWBTL8893balak100,000
421/09 23:31DA2NAR4Abalak100,000
521/09 23:31KALVENObalak100,000
LATEST JACKPOT
No.TanggalNamaPriceWin
121/09 23:38ARIEF1717murni besar50,000
221/09 23:37X6X6X6murni kecil50,000
321/09 23:37ALISmurni besar5,000
421/09 23:37JAMIL_6666murni besar25,000
521/09 23:37NYIELLAlucky992,500
621/09 23:37MOMSEX99murni besar50,000
721/09 23:37AYIK77murni besar50,000
821/09 23:36HOKI_34murni besar25,000
921/09 23:36BLACKHOOK1murni besar5,000
1021/09 23:36RIYO1510murni besar25,000
1121/09 23:36C84SHBOY24699murni besar50,000
1221/09 23:35CALUNG11balak100,000
1321/09 23:35TEMPE444murni enam666,600
1421/09 23:35ATESYANTIKmurni kecil50,000
1521/09 23:35JAMIL_6666balak50,000
1621/09 23:35LABIO95murni besar25,000
1721/09 23:34ROOM28murni kecil50,000
1821/09 23:34UL4Ymurni kecil5,000
1921/09 23:33DWBTL8893balak100,000
2021/09 23:33C4NGCUT321murni besar50,000
2121/09 23:31DA2NAR4Abalak100,000
2221/09 23:31KALVENObalak100,000
2321/09 23:31BAYA98murni kecil25,000
2421/09 23:31MARRASKI14murni kecil5,000
2521/09 23:31RIYADI18balak50,000
2621/09 23:30MURENG20murni besar25,000
2721/09 23:30BBG425murni besar25,000
2821/09 23:29LAKEDO077murni kecil50,000
2921/09 23:29KLIENHOKImurni kecil25,000
3021/09 23:28DEMELSAmurni besar25,000
3121/09 23:28KURMAQQmurni kecil5,000
3221/09 23:28YAS999balak50,000
3321/09 23:28PRMAI104murni besar25,000
3421/09 23:28LGTS5balak10,000
3521/09 23:27XUBAZlucky9925,000
3621/09 23:27FURTUNAT4_murni kecil5,000
3721/09 23:27VANDELAmurni kecil50,000
3821/09 23:27TEROBOS_85murni kecil5,000
3921/09 23:27NAZIFIREbalak100,000
4021/09 23:26ZOKER05454murni besar5,000
4121/09 23:26FUCK43murni besar5,000
4221/09 23:26DOEGAL238murni besar50,000
4321/09 23:26PEPI92murni kecil50,000
4421/09 23:26STYLE930murni kecil50,000
4521/09 23:26DODI891murni besar50,000
4621/09 23:25AAULIYAAmurni kecil25,000
4721/09 23:25DEIRGI123murni besar50,000
4821/09 23:25LK4DSISKA07murni besar5,000
4921/09 23:25MJS99murni kecil25,000
5021/09 23:24KALVENOmurni besar50,000

Ceme Multi Jackpot System

Jackpot dilihat dari gabungan kartu pemain dengan kartu bandar. Bandar harus membeli jackpot sebanyak jumlah player yang sedang duduk. Sebagai contoh bila terdapat 3 pemain duduk bermain, dan bandar memutuskan untuk membeli jackpot Rp 1.000, maka pada periode tersebut bandar akan membeli jackpot sebanyak 3xRp1.000 = Rp3.000.

Jackpot bukanlah suatu keharusan untuk dibeli, namun kami memberikan suatu fitur tambahan untuk member tercinta dari www.b88poker.cc.

Terdapat tiga pilihan harga jackpot yang bisa anda beli yaitu :100,500 dan 1000 rupiah.

Hadiah dari Multi jackpot system www.b88poker.cc

  1. Murni Kecil x 50 harga jackpot yang anda beli.
      (contoh:anda membeli 1000 maka:1000 X 50 = 50.000)
  2. Murni Besar x 50 harga jackpot yang anda beli
      (contoh:anda membeli 1000 maka:1000 X 50 = 50.000)
  3. BALAK x 200 harga jackpot yang anda beli
      (contoh:anda membeli 1000 maka:1000 X 200 = 200.000)
  4. ENAM DEWA x 6666 harga jackpot yang anda beli
      (contoh:anda membeli 1000 maka:1000 X 6666 = 6.666.000)

Demikian adalah penjelasan dari Multi Jackpot www.b88poker.cc terima kasih dan selamat bermain salam hoki dari kami

Ceme Jackpot Winner

TOP ENAM DEWA
No.TanggalNamaPriceWin
121/09 23:26BEGAL30murni enam666,600
221/09 23:26DC_QWEENmurni enam3,333,000
321/09 23:17CACA37murni enam6,666,000
421/09 23:15MVP03murni enam6,666,000
521/09 23:08KETEK234murni enam6,666,000
TOP BALAK
No.TanggalNamaPriceWin
121/09 23:39OXFNQZWLG3balak20,000
221/09 23:39GUN0805balak20,000
321/09 23:39UNTUNG766balak200,000
421/09 23:38JILAT390balak200,000
521/09 23:38HAJIWINbalak200,000
LATEST JACKPOT
No.TanggalNamaPriceWin
121/09 23:39OXFNQZWLG3balak20,000
221/09 23:39YESS78murni kecil50,000
321/09 23:39FEBZRYmurni kecil50,000
421/09 23:39YESS78murni kecil50,000
521/09 23:39A19LANDY402murni kecil50,000
621/09 23:39OPICK789murni kecil5,000
721/09 23:39ALEXXX123murni kecil50,000
821/09 23:39MBELINK099murni kecil50,000
921/09 23:39GUN0805balak20,000
1021/09 23:39A53G89300murni besar50,000
1121/09 23:39WIN0903murni besar50,000
1221/09 23:39SELARAS1murni besar50,000
1321/09 23:39SM0549murni besar50,000
1421/09 23:39RIOIMUTmurni besar50,000
1521/09 23:39VLH6GK7VG4murni besar25,000
1621/09 23:39RIOIMUTmurni besar50,000
1721/09 23:39PRO2330murni besar50,000
1821/09 23:39METIS499murni besar5,000
1921/09 23:39UNTUNG766balak200,000
2021/09 23:39KAPAL100murni kecil5,000
2121/09 23:39KOPONG28murni kecil50,000
2221/09 23:39MEUNANGLOMmurni kecil50,000
2321/09 23:38WIN343murni besar50,000
2421/09 23:38MON77murni besar25,000
2521/09 23:38T4KOT90murni besar25,000
2621/09 23:38BEGAL30murni besar5,000
2721/09 23:38IDPRO77754murni kecil50,000
2821/09 23:38NARTOH25murni kecil50,000
2921/09 23:38BACIN89murni besar50,000
3021/09 23:38JILAT390balak200,000
3121/09 23:38HAJIWINbalak200,000
3221/09 23:38BATMANN31balak200,000
3321/09 23:38SELARAS1murni kecil50,000
3421/09 23:38JAL3434murni kecil50,000
3521/09 23:38UNTUNG766murni kecil25,000
3621/09 23:38AGOESS179murni besar50,000
3721/09 23:38ANCUR1Nmurni besar25,000
3821/09 23:38RIOIMUTmurni kecil50,000
3921/09 23:38HOKKYYY88murni besar50,000
4021/09 23:38SESUKAHATImurni besar25,000
4121/09 23:38BOSMUDA14balak200,000
4221/09 23:38SMASH_OKE7balak200,000
4321/09 23:38BIBIL77murni kecil50,000
4421/09 23:38NATAMAROmurni kecil50,000
4521/09 23:38RIPCURLXLmurni kecil5,000
4621/09 23:38SIAAN87murni kecil50,000
4721/09 23:37SANUR123murni kecil50,000
4821/09 23:37JALU1222murni kecil50,000
4921/09 23:37TRIS55murni besar50,000
5021/09 23:37JHONIESMOmurni besar50,000